N2NET Weather Reports


Display with metric or nautical units.
time (UTC)temp
F
wind
direction
speed
MPH
gust
MPH
rain 1hr
in
rain 24hr
in
rain mn
in
humidity
%
barometer
mb
20260902073101 58 0 0.0 2.0 0.00 0.17 0.01 100 1019.8
20260902071601 58 0 0.0 2.0 0.00 0.17 0.01 100 1019.8
20260902064555 58 102 0.0 2.0 0.00 0.17 0.01 100 1020.0
20260902063114 58 44 0.0 2.0 0.00 0.17 0.01 100 1019.7
20260902060126 58 108 1.0 3.0 0.00 0.17 0.01 100 1019.8
20260902054611 58 91 0.0 3.0 0.00 0.17 0.01 100 1019.9
20260902053107 59 141 0.0 2.0 0.01 0.17 0.01 100 1019.9
20260902051600 59 0 0.0 1.0 0.01 0.17 0.01 100 1019.6
20260902050105 59 56 0.0 3.0 0.01 0.17 0.01 100 1019.3
20260902044610 59 84 0.0 2.0 0.01 0.18 0.01 100 1019.3
20260902043114 60 67 0.0 3.0 0.00 0.17 0.00 100 1019.0
20260902041608 60 131 0.0 5.0 0.00 0.17 0.00 100 1019.0
20260902040108 60 122 0.0 4.0 0.00 0.17 0.00 100 1018.8
20260902034617 61 108 0.0 5.0 0.00 0.17 0.17 100 1018.5
20260902033059 61 0 0.0 2.0 0.00 0.17 0.17 100 1018.3
20260902031605 62 115 0.0 3.0 0.00 0.17 0.17 100 1018.1
20260902030106 62 0 0.0 2.0 0.00 0.17 0.17 100 1018.3
20260902024609 62 45 1.0 3.0 0.00 0.17 0.17 100 1018.1
20260902023104 62 61 0.0 2.0 0.00 0.17 0.17 100 1018.1
20260902021609 63 0 0.0 4.0 0.00 0.17 0.17 100 1018.1
20260902020106 63 152 1.0 3.0 0.01 0.17 0.17 100 1018.1
20260902014601 64 115 1.0 4.0 0.01 0.17 0.17 100 1018.1
20260902013100 64 138 1.0 3.0 0.01 0.17 0.17 100 1018.0
20260902011602 65 111 0.0 6.0 0.01 0.17 0.17 100 1017.7
20260902004603 65 0 1.0 7.0 0.00 0.18 0.16 100 1017.2
20260902003134 65 0 0.0 2.0 0.00 0.18 0.16 100 1016.9
20260902001559 65 0 0.0 2.0 0.00 0.18 0.16 100 1016.5
20260902000107 66 0 0.0 0.0 0.00 0.18 0.16 100 1016.3
20260901234603 66 0 0.0 0.0 0.00 0.19 0.16 100 1016.2
20260901233106 66 0 0.0 0.0 0.00 0.19 0.16 100 1016.3
20260901231605 66 0 0.0 2.0 0.00 0.19 0.16 100 1016.4
20260901224607 67 136 0.0 2.0 0.00 0.19 0.16 100 1016.2
20260901223101 68 0 0.0 1.0 0.00 0.19 0.16 100 1016.2
20260901221619 68 0 0.0 1.0 0.00 0.19 0.16 100 1016.1
20260901220106 69 0 0.0 0.0 0.00 0.19 0.16 100 1015.9
20260901214559 69 0 0.0 1.0 0.00 0.19 0.16 100 1015.7
20260901213109 69 0 0.0 1.0 0.00 0.19 0.16 100 1015.8
20260901211603 69 0 0.0 2.0 0.00 0.19 0.16 100 1015.6
20260901210132 70 37 1.0 3.0 0.06 0.19 0.16 100 1015.5
20260901204559 70 25 1.0 6.0 0.06 0.19 0.16 100 1015.5
20260901203059 71 0 0.0 3.0 0.06 0.19 0.16 100 1015.5
20260901201604 72 0 0.0 2.0 0.06 0.19 0.16 100 1015.4
20260901194607 73 118 1.0 9.0 0.00 0.13 0.10 100 1015.3
20260901193109 73 108 2.0 4.0 0.00 0.13 0.10 100 1015.2
20260901191616 73 135 3.0 7.0 0.00 0.13 0.10 100 1015.1
20260901190135 74 198 1.0 6.0 0.00 0.13 0.10 2 1015.2
20260901184605 75 49 3.0 8.0 0.00 0.13 0.10 10 1015.0
20260901183108 76 116 1.0 5.0 0.00 0.13 0.10 24 1015.0
20260901181606 76 77 1.0 4.0 0.00 0.13 0.10 42 1014.9
20260901180108 78 26 1.0 5.0 0.00 0.13 0.10 60 1014.8
20260901174602 80 127 2.0 5.0 0.00 0.13 0.10 65 1014.7
20260901173105 80 309 1.0 3.0 0.00 0.13 0.10 65 1014.5
20260901171636 78 127 1.0 3.0 0.00 0.13 0.10 60 1014.5
20260901170108 77 201 1.0 3.0 0.00 0.13 0.10 52 1014.5
20260901164618 77 143 1.0 4.0 0.00 0.13 0.10 8 1014.7
20260901163117 75 245 0.0 2.0 0.00 0.13 0.10 100 1015.2
20260901161613 70 20 1.0 2.0 0.00 0.13 0.10 100 1015.4
20260901160107 68 135 0.0 1.0 0.00 0.13 0.10 100 1015.6
20260901154603 68 0 0.0 2.0 0.00 0.13 0.10 100 1015.9
20260901153104 67 0 0.0 1.0 0.00 0.13 0.10 100 1016.0
20260901151602 67 0 0.0 0.0 0.00 0.13 0.10 100 1016.1
20260901150105 66 0 0.0 0.0 0.00 0.13 0.10 100 1016.2
20260901144604 65 0 0.0 2.0 0.00 0.13 0.10 100 1016.0
20260901143104 66 0 0.0 1.0 0.00 0.13 0.10 100 1016.0
20260901141610 66 0 0.0 0.0 0.00 0.13 0.10 100 1016.1
20260901140104 65 0 0.0 0.0 0.00 0.13 0.10 100 1016.0
20260901134603 65 0 0.0 0.0 0.01 0.13 0.10 100 1016.0
20260901133109 64 0 0.0 0.0 0.03 0.13 0.10 100 1016.0
20260901131601 63 0 0.0 0.0 0.07 0.13 0.10 100 1016.1
20260901130108 63 39 1.0 2.0 0.08 0.13 0.10 100 1016.2
20260901124603 62 0 0.0 1.0 0.07 0.12 0.09 100 1016.5
20260901123104 62 0 0.0 1.0 0.05 0.10 0.07 100 1016.3
20260901121608 62 0 0.0 0.0 0.01 0.06 0.03 100 1016.3
20260901120106 62 0 0.0 0.0 0.00 0.05 0.02 100 1016.3
20260901114604 62 0 0.0 0.0 0.00 0.05 0.02 100 1016.2
20260901113106 62 0 0.0 0.0 0.00 0.05 0.02 100 1016.1
20260901111611 62 0 0.0 0.0 0.00 0.05 0.02 100 1016.0
20260901110100 61 0 0.0 2.0 0.01 0.05 0.02 100 1016.0
20260901104602 61 0 0.0 0.0 0.01 0.05 0.02 100 1016.1
20260901103106 61 0 0.0 0.0 0.01 0.05 0.02 100 1016.0
20260901101603 61 0 0.0 0.0 0.01 0.05 0.02 100 1016.0
20260901100107 61 0 0.0 0.0 0.00 0.04 0.01 100 1016.0
20260901094603 61 0 0.0 0.0 0.00 0.04 0.01 100 1016.0
20260901093103 61 0 0.0 0.0 0.00 0.04 0.01 100 1016.1
20260901091608 62 0 0.0 0.0 0.00 0.04 0.01 100 1016.2
20260901090101 62 0 0.0 0.0 0.00 0.04 0.01 100 1016.2
20260901084605 62 0 0.0 0.0 0.00 0.04 0.01 100 1016.2
20260901083101 62 0 0.0 0.0 0.00 0.04 0.01 100 1016.4
20260901081558 62 0 0.0 0.0 0.00 0.04 0.01 100 1016.5
20260901080113 62 0 0.0 0.0 0.00 0.04 0.01 100 1016.4
20260901074601 62 0 0.0 0.0 0.00 0.04 0.01 100 1016.6